FW7886 Weather Reports


Display with metric or nautical units.
time (UTC)temp
F
wind
direction
speed
MPH
gust
MPH
rain 1hr
in
rain 24hr
in
rain mn
in
humidity
%
barometer
mb
20260904090125 77 111 0.0 0.0 0.00 0.00 0.00 100 1013.2
20260904085620 77 111 0.0 0.0 0.00 0.00 0.00 100 1013.3
20260904085330 77 111 0.0 0.0 0.00 0.00 0.00 100 1013.2
20260904084607 77 111 0.0 0.0 0.00 0.00 0.00 100 1013.3
20260904084551 77 111 0.0 0.0 0.00 0.00 0.00 99 1013.2
20260904083555 77 111 0.0 0.0 0.00 0.00 0.00 99 1013.1
20260904083049 77 111 0.0 0.0 0.00 0.00 0.00 99 1013.1
20260904083022 77 111 0.0 0.0 0.00 0.00 0.00 99 1013.0
20260904082037 77 111 0.0 0.0 0.00 0.00 0.00 99 1013.1
20260904081531 77 111 0.0 0.0 0.00 0.00 0.00 99 1013.0
20260904081025 77 111 0.0 0.0 0.00 0.00 0.00 99 1013.1
20260904080519 78 111 0.0 0.0 0.00 0.00 0.00 99 1013.2
20260904080013 78 111 0.0 0.0 0.00 0.00 0.00 99 1013.1
20260904075507 78 111 0.0 0.0 0.00 0.00 0.00 99 1013.1
20260904075001 78 111 0.0 0.0 0.00 0.00 0.00 99 1013.1
20260904074715 78 111 0.0 0.0 0.00 0.00 0.00 99 1013.1
20260904073949 78 111 0.0 0.0 0.00 0.00 0.00 99 1013.1
20260904073443 78 111 0.0 0.0 0.00 0.00 0.00 99 1013.2
20260904072937 78 111 0.0 0.0 0.00 0.00 0.00 99 1013.2
20260904072911 78 111 0.0 0.0 0.00 0.00 0.00 99 1013.1
20260904071925 78 111 0.0 0.0 0.00 0.00 0.00 99 1013.3
20260904071419 78 111 0.0 0.0 0.00 0.00 0.00 99 1013.3
20260904070913 78 111 0.0 0.0 0.00 0.00 0.00 99 1013.3
20260904070407 78 111 0.0 0.0 0.00 0.00 0.00 99 1013.3
20260904065901 78 111 0.0 0.0 0.00 0.00 0.00 99 1013.3
20260904065355 78 111 0.0 0.0 0.00 0.00 0.00 99 1013.2
20260904064849 78 111 0.0 0.0 0.00 0.00 0.00 99 1013.2
20260904064343 78 111 0.0 0.0 0.00 0.00 0.00 99 1013.2
20260904063837 78 111 0.0 0.0 0.00 0.00 0.00 99 1013.3
20260904063550 78 111 0.0 0.0 0.00 0.00 0.00 99 1013.2
20260904062825 78 111 0.0 0.0 0.00 0.00 0.00 99 1013.3
20260904062319 78 111 0.0 0.0 0.00 0.00 0.00 99 1013.4
20260904062040 78 111 0.0 0.0 0.00 0.00 0.00 99 1013.2
20260904061307 78 111 0.0 0.0 0.00 0.00 0.00 99 1013.2
20260904060800 78 111 0.0 0.0 0.00 0.00 0.00 99 1013.2
20260904060256 78 111 0.0 0.0 0.00 0.00 0.00 99 1013.2
20260904055749 78 111 0.0 0.0 0.00 0.00 0.00 99 1013.2
20260904055506 78 111 0.0 0.0 0.00 0.00 0.00 99 1013.1
20260904054744 78 111 0.0 0.0 0.00 0.00 0.00 99 1013.0
20260904054246 78 111 0.0 0.0 0.00 0.00 0.00 99 1013.1
20260904053745 78 111 0.0 0.0 0.00 0.00 0.00 98 1013.1
20260904053244 78 111 0.0 0.0 0.00 0.00 0.00 98 1013.0
20260904053236 78 111 0.0 0.0 0.00 0.00 0.00 99 1013.0
20260904052245 78 111 0.0 0.0 0.00 0.00 0.00 98 1013.0
20260904052013 79 111 0.0 0.0 0.00 0.00 0.00 98 1013.2
20260904051245 78 111 0.0 0.0 0.00 0.00 0.00 98 1013.1
20260904050743 78 111 0.0 0.0 0.00 0.00 0.00 98 1013.0
20260904050241 78 111 0.0 0.0 0.00 0.00 0.00 98 1013.1
20260904045740 78 111 0.0 0.0 0.00 0.00 0.00 98 1013.0
20260904045240 78 111 0.0 0.0 0.00 0.00 0.00 98 1013.1
20260904045006 78 111 0.0 0.0 0.00 0.00 0.00 98 1013.1
20260904044240 78 111 0.0 0.0 0.00 0.00 0.00 98 1013.1
20260904044218 78 111 0.0 0.0 0.00 0.00 0.00 97 1013.1
20260904043237 78 111 0.0 0.0 0.00 0.00 0.00 97 1013.0
20260904042736 79 111 0.0 0.0 0.00 0.00 0.00 97 1013.1
20260904042233 79 111 0.0 0.0 0.00 0.00 0.00 96 1013.1
20260904041727 79 111 0.0 1.0 0.00 0.00 0.00 96 1013.2
20260904041221 79 111 0.0 1.0 0.00 0.00 0.00 96 1013.2
20260904040943 80 104 0.0 0.0 0.00 0.00 0.00 96 1013.1
20260904040210 80 104 0.0 1.0 0.00 0.00 0.00 96 1013.3
20260904040148 80 104 0.0 1.0 0.00 0.00 0.00 96 1013.2
20260904035157 80 103 0.0 1.0 0.00 0.00 0.00 97 1013.2
20260904034651 80 103 0.0 1.0 0.00 0.00 0.00 97 1013.3
20260904034145 80 95 0.0 1.0 0.00 0.00 0.00 97 1013.3
20260904033639 80 95 0.0 1.0 0.00 0.00 0.00 96 1013.3
20260904033134 80 95 0.0 1.0 0.00 0.00 0.00 96 1013.2
20260904032627 80 95 0.0 1.0 0.00 0.00 0.00 96 1013.3
20260904032121 80 95 0.0 1.0 0.00 0.00 0.00 95 1013.2
20260904031846 80 80 0.0 1.0 0.00 0.00 0.00 95 1013.3
20260904031110 80 80 0.0 1.0 0.00 0.00 0.00 95 1013.2
20260904030603 80 89 0.0 1.0 0.00 0.00 0.00 95 1013.2
20260904030057 81 82 0.0 1.0 0.00 0.00 0.00 95 1013.2
20260904025551 81 85 0.0 3.0 0.00 0.00 0.00 94 1013.2
20260904025045 82 279 0.0 3.0 0.00 0.00 0.00 92 1013.4
20260904024541 82 276 0.0 4.0 0.00 0.00 0.00 92 1013.4
20260904024033 82 278 0.0 4.0 0.00 0.00 0.00 91 1013.3
20260904023527 82 102 0.0 3.0 0.00 0.00 0.00 91 1013.3
20260904023021 82 101 1.0 4.0 0.00 0.00 0.00 90 1013.3
20260904022733 82 73 1.0 4.0 0.00 0.00 0.00 90 1013.1
20260904022009 82 66 1.0 4.0 0.00 0.00 0.00 90 1013.1
20260904021503 82 28 1.0 4.0 0.00 0.00 0.00 89 1013.2
20260904020957 82 293 1.0 4.0 0.00 0.00 0.00 90 1013.3
20260904020721 82 278 1.0 3.0 0.00 0.00 0.00 89 1013.3
20260904015945 83 280 1.0 3.0 0.00 0.00 0.00 89 1013.1
20260904015439 83 284 1.0 3.0 0.00 0.00 0.00 88 1013.0
20260904014933 83 281 1.0 3.0 0.00 0.00 0.00 88 1013.0
20260904014428 83 284 1.0 3.0 0.00 0.00 0.00 88 1013.0
20260904013921 83 273 1.0 3.0 0.00 0.00 0.00 87 1012.9
20260904013415 83 281 1.0 3.0 0.00 0.00 0.00 87 1012.9
20260904012910 83 253 1.0 4.0 0.00 0.00 0.00 87 1013.0
20260904012403 83 253 1.0 4.0 0.00 0.00 0.00 86 1013.1
20260904011858 84 253 1.0 4.0 0.00 0.00 0.00 86 1013.2
20260904011351 84 253 1.0 4.0 0.00 0.00 0.00 86 1013.3
20260904010845 84 176 1.0 4.0 0.00 0.00 0.00 85 1013.2
20260904010339 84 82 1.0 4.0 0.00 0.00 0.00 85 1013.2
20260904010107 84 25 1.0 4.0 0.00 0.00 0.00 85 1013.2
20260904005554 84 288 1.0 4.0 0.00 0.00 0.00 84 1013.2
20260904004820 84 312 1.0 4.0 0.00 0.00 0.00 84 1013.3
20260904004315 85 299 1.0 4.0 0.00 0.00 0.00 83 1013.1
20260904003809 85 282 1.0 4.0 0.00 0.00 0.00 84 1013.1
20260904003306 85 303 3.0 6.0 0.00 0.00 0.00 83 1013.0
20260904002807 85 296 4.0 6.0 0.00 0.00 0.00 82 1012.9
20260904002306 85 319 3.0 6.0 0.00 0.00 0.00 82 1013.1
20260904001805 86 312 3.0 6.0 0.00 0.00 0.00 81 1013.0
20260904001522 86 301 4.0 6.0 0.00 0.00 0.00 80 1012.9
20260904001021 86 305 4.0 8.0 0.00 0.00 0.00 81 1013.0
20260904000304 87 340 4.0 10.0 0.00 0.00 0.00 80 1013.0
20260903235802 87 73 4.0 11.0 0.00 0.00 0.00 82 1013.0
20260903235750 87 298 4.0 11.0 0.00 0.00 0.00 81 1013.1
20260903234803 87 54 4.0 9.0 0.00 0.00 0.00 82 1013.0
20260903234303 87 301 5.0 9.0 0.00 0.00 0.00 82 1013.0
20260903233801 87 2 4.0 9.0 0.00 0.00 0.00 83 1012.7
20260903233302 87 297 4.0 11.0 0.00 0.00 0.00 83 1012.8
20260903232805 87 334 5.0 11.0 0.00 0.00 0.00 83 1012.5
20260903232306 87 94 4.0 9.0 0.00 0.00 0.00 83 1012.5
20260903231800 87 30 4.0 10.0 0.00 0.00 0.00 82 1012.6
20260903231519 87 80 5.0 13.0 0.00 0.00 0.00 82 1012.5
20260903230801 88 62 5.0 13.0 0.00 0.00 0.00 81 1012.3
20260903230255 88 33 5.0 11.0 0.00 0.00 0.00 80 1012.2
20260903230006 89 49 5.0 10.0 0.00 0.00 0.00 79 1012.4
20260903225251 89 11 6.0 10.0 0.00 0.00 0.00 79 1012.5
20260903224750 89 347 6.0 10.0 0.00 0.00 0.00 78 1012.4
20260903224250 90 308 6.0 10.0 0.00 0.00 0.00 76 1012.3
20260903223750 90 67 5.0 10.0 0.00 0.00 0.00 74 1012.6
20260903223250 91 288 4.0 9.0 0.00 0.00 0.00 71 1012.4
20260903222749 91 37 3.0 5.0 0.00 0.00 0.00 72 1012.3
20260903222250 91 66 3.0 6.0 0.00 0.00 0.00 73 1012.5
20260903221752 90 61 3.0 6.0 0.00 0.00 0.00 73 1012.5
20260903221250 90 89 3.0 5.0 0.00 0.00 0.00 73 1012.3
20260903220751 90 95 3.0 6.0 0.00 0.00 0.00 73 1012.3
20260903220510 91 92 3.0 6.0 0.00 0.00 0.00 73 1012.3
20260903215749 91 91 3.0 5.0 0.00 0.00 0.00 73 1012.4
20260903215247 91 75 3.0 6.0 0.00 0.00 0.00 73 1012.7
20260903214749 91 110 3.0 6.0 0.00 0.00 0.00 73 1012.5
20260903214243 91 56 4.0 9.0 0.00 0.00 0.00 73 1012.6
20260903213737 91 336 4.0 9.0 0.00 0.00 0.00 71 1012.7
20260903213238 91 68 3.0 8.0 0.00 0.00 0.00 69 1013.0
20260903212738 92 39 3.0 5.0 0.00 0.00 0.00 70 1013.1
20260903212237 92 260 3.0 6.0 0.00 0.00 0.00 68 1012.9
20260903211740 92 319 3.0 6.0 0.00 0.00 0.00 69 1012.8
20260903211239 92 85 3.0 8.0 0.00 0.00 0.00 68 1012.8
20260903210959 92 92 1.0 8.0 0.00 0.00 0.00 68 1012.8
20260903210238 91 322 3.0 6.0 0.00 0.00 0.00 69 1012.9
20260903205739 91 73 4.0 8.0 0.00 0.00 0.00 69 1012.9
20260903205500 92 344 4.0 9.0 0.00 0.00 0.00 69 1012.9
20260903204739 92 293 5.0 10.0 0.00 0.00 0.00 68 1012.9
20260903204237 92 301 5.0 10.0 0.00 0.00 0.00 68 1013.0
20260903203738 93 309 4.0 10.0 0.00 0.00 0.00 67 1013.0
20260903203239 93 289 1.0 8.0 0.00 0.00 0.00 64 1012.9
20260903202739 94 189 1.0 5.0 0.00 0.00 0.00 63 1013.0
20260903202238 94 177 3.0 6.0 0.00 0.00 0.00 63 1012.8
20260903201739 94 170 3.0 9.0 0.00 0.00 0.00 63 1012.9
20260903201237 95 292 3.0 9.0 0.00 0.00 0.00 65 1012.9
20260903200738 94 73 3.0 5.0 0.00 0.00 0.00 63 1013.0
20260903200239 94 66 1.0 4.0 0.00 0.00 0.00 64 1013.1
20260903195738 94 233 3.0 9.0 0.00 0.00 0.00 63 1013.0
20260903195238 94 273 4.0 9.0 0.00 0.00 0.00 64 1013.0
20260903194739 94 181 3.0 8.0 0.00 0.00 0.00 61 1013.2
20260903194458 94 82 3.0 8.0 0.00 0.00 0.00 63 1013.1
20260903193734 94 274 4.0 9.0 0.00 0.00 0.00 63 1013.3
20260903193437 94 345 3.0 8.0 0.00 0.00 0.00 62 1013.3
20260903193323 94 93 4.0 9.0 0.00 0.00 0.00 61 1013.4
20260903192232 94 52 3.0 8.0 0.00 0.00 0.00 62 1013.5
20260903191959 94 293 3.0 9.0 0.00 0.00 0.00 62 1013.6
20260903191232 94 324 4.0 9.0 0.00 0.00 0.00 63 1013.6
20260903190731 94 78 4.0 10.0 0.00 0.00 0.00 64 1013.6
20260903190236 94 307 4.0 10.0 0.00 0.00 0.00 63 1013.8
20260903185728 94 56 3.0 8.0 0.00 0.00 0.00 62 1013.9
20260903185221 94 315 3.0 8.0 0.00 0.00 0.00 65 1013.9
20260903184715 94 307 1.0 6.0 0.00 0.00 0.00 62 1013.9
20260903184209 94 125 1.0 5.0 0.00 0.00 0.00 61 1013.9
20260903183703 94 155 1.0 5.0 0.00 0.00 0.00 63 1014.0
20260903183157 94 292 1.0 5.0 0.00 0.00 0.00 63 1014.2
20260903182650 93 187 3.0 8.0 0.00 0.00 0.00 66 1014.2
20260903182408 93 310 4.0 9.0 0.00 0.00 0.00 64 1014.3
20260903182123 93 289 3.0 9.0 0.00 0.00 0.00 63 1014.3
20260903181133 93 292 3.0 6.0 0.00 0.00 0.00 65 1014.4
20260903180627 92 0 1.0 6.0 0.00 0.00 0.00 67 1014.4
20260903180122 92 157 1.0 4.0 0.00 0.00 0.00 66 1014.5
20260903175615 92 139 1.0 4.0 0.00 0.00 0.00 69 1014.6
20260903175109 92 279 1.0 4.0 0.00 0.00 0.00 66 1014.6
20260903174603 92 277 1.0 5.0 0.00 0.00 0.00 70 1014.7
20260903174314 91 61 3.0 5.0 0.00 0.00 0.00 70 1014.8
20260903173550 91 292 3.0 6.0 0.00 0.00 0.00 70 1015.0
20260903173045 92 310 3.0 8.0 0.00 0.00 0.00 70 1015.0
20260903172539 91 270 1.0 8.0 0.00 0.00 0.00 70 1014.9
20260903172034 92 155 1.0 4.0 0.00 0.00 0.00 72 1015.0
20260903171747 91 154 3.0 8.0 0.00 0.00 0.00 72 1015.1
20260903171021 91 161 4.0 9.0 0.00 0.00 0.00 71 1015.1
20260903170515 92 303 3.0 9.0 0.00 0.00 0.00 71 1015.2
20260903170457 92 278 1.0 6.0 0.00 0.00 0.00 69 1015.1
20260903165501 92 310 3.0 6.0 0.00 0.00 0.00 70 1015.1
20260903165002 92 120 3.0 11.0 0.00 0.00 0.00 70 1015.3
20260903164451 93 291 1.0 11.0 0.00 0.00 0.00 73 1015.3
20260903163946 92 128 0.0 4.0 0.00 0.00 0.00 73 1015.3
20260903163439 91 128 1.0 4.0 0.00 0.00 0.00 75 1015.3
20260903162933 90 75 1.0 4.0 0.00 0.00 0.00 77 1015.3
20260903162427 89 270 1.0 5.0 0.00 0.00 0.00 78 1015.4
20260903162141 88 293 1.0 5.0 0.00 0.00 0.00 81 1015.4
20260903161415 88 274 3.0 5.0 0.00 0.00 0.00 82 1015.4
20260903160403 86 279 1.0 5.0 0.00 0.00 0.00 86 1015.4
20260903155858 85 286 1.0 4.0 0.00 0.00 0.00 92 1015.4
20260903155351 84 260 0.0 3.0 0.00 0.00 0.00 99 1015.4
20260903154846 83 305 0.0 3.0 0.00 0.00 0.00 99 1015.5
20260903154339 83 305 0.0 3.0 0.00 0.00 0.00 98 1015.5
20260903154051 83 305 1.0 4.0 0.00 0.00 0.00 98 1015.4
20260903153327 83 305 1.0 4.0 0.00 0.00 0.00 99 1015.5
20260903152820 83 303 0.0 3.0 0.00 0.00 0.00 100 1015.4
20260903152315 83 282 0.0 1.0 0.00 0.00 0.00 100 1015.3
20260903151809 82 284 1.0 4.0 0.00 0.00 0.00 99 1015.3
20260903151526 82 284 1.0 4.0 0.00 0.00 0.00 99 1015.3
20260903150757 82 301 1.0 4.0 0.00 0.00 0.00 99 1015.3
20260903150251 82 250 1.0 4.0 0.00 0.00 0.00 99 1015.3
20260903145745 82 112 1.0 4.0 0.00 0.00 0.00 100 1015.2
20260903145239 82 137 1.0 4.0 0.00 0.00 0.00 100 1015.4
20260903144733 81 315 1.0 4.0 0.00 0.00 0.00 99 1015.3
20260903144227 81 181 1.0 4.0 0.00 0.00 0.00 100 1015.4
20260903143721 81 195 1.0 4.0 0.00 0.00 0.00 100 1015.3
20260903143215 81 296 1.0 5.0 0.00 0.00 0.00 100 1015.5
20260903142709 81 282 1.0 5.0 0.00 0.00 0.00 100 1015.5
20260903142203 81 184 1.0 5.0 0.00 0.00 0.00 100 1015.4
20260903141918 81 189 1.0 5.0 0.00 0.00 0.00 100 1015.5
20260903141151 81 196 0.0 4.0 0.00 0.00 0.00 100 1015.4
20260903140758 82 99 0.0 3.0 0.00 0.00 0.00 96 1015.2
20260903140737 81 282 1.0 4.0 0.00 0.00 0.00 99 1015.3
20260903140620 81 122 0.0 3.0 0.00 0.00 0.00 99 1015.3
20260903140503 82 94 0.0 3.0 0.00 0.00 0.00 99 1015.2
20260903140342 83 164 0.0 3.0 0.00 0.00 0.00 96 1015.2
20260903134621 82 99 0.0 3.0 0.00 0.00 0.00 96 1015.2
20260903134341 82 156 0.0 3.0 0.00 0.00 0.00 96 1015.4
20260903133832 82 208 0.0 3.0 0.00 0.00 0.00 96 1015.4
20260903133330 82 108 0.0 3.0 0.00 0.00 0.00 98 1015.5
20260903132557 81 128 0.0 3.0 0.00 0.00 0.00 97 1015.4
20260903132050 82 84 0.0 1.0 0.00 0.00 0.00 98 1015.5
20260903131546 81 97 0.0 1.0 0.00 0.00 0.00 97 1015.5
20260903131039 80 95 0.0 1.0 0.00 0.00 0.00 98 1015.7
20260903130537 80 85 0.0 1.0 0.00 0.00 0.00 99 1015.6
20260903130304 79 100 0.0 1.0 0.00 0.00 0.00 100 1015.5
20260903125535 79 90 0.0 1.0 0.00 0.00 0.00 100 1015.6
20260903125033 79 97 0.0 1.0 0.00 0.00 0.00 100 1015.5
20260903124533 78 104 0.0 0.0 0.00 0.00 0.00 100 1015.6
20260903124248 78 102 0.0 0.0 0.00 0.00 0.00 100 1015.5
20260903123528 77 102 0.0 0.0 0.00 0.00 0.00 100 1015.5
20260903123024 77 102 0.0 0.0 0.00 0.00 0.00 100 1015.4
20260903122832 77 102 0.0 0.0 0.00 0.00 0.00 100 1015.2
20260903122826 77 102 0.0 0.0 0.00 0.00 0.00 100 1015.2
20260903122742 77 102 0.0 0.0 0.00 0.00 0.00 100 1015.3
20260903122632 77 102 0.0 0.0 0.00 0.00 0.00 100 1015.2
20260903122254 77 102 0.0 0.0 0.00 0.00 0.00 100 1015.2
20260903120529 77 102 0.0 0.0 0.00 0.00 0.00 100 1015.2
20260903120024 76 102 0.0 0.0 0.00 0.00 0.00 100 1015.2
20260903115523 76 102 0.0 0.0 0.00 0.00 0.00 100 1015.0
20260903115024 76 102 0.0 0.0 0.00 0.00 0.00 100 1014.9
20260903114524 76 102 0.0 0.0 0.00 0.00 0.00 100 1014.9
20260903114249 76 102 0.0 0.0 0.00 0.00 0.00 100 1014.8
20260903113523 76 102 0.0 0.0 0.00 0.00 0.00 100 1014.7
20260903113510 76 102 0.0 0.0 0.00 0.00 0.00 100 1014.8
20260903112524 76 102 0.0 0.0 0.00 0.00 0.00 100 1014.7
20260903112024 76 102 0.0 0.0 0.00 0.00 0.00 100 1014.5
20260903111519 76 102 0.0 0.0 0.00 0.00 0.00 100 1014.3
20260903111018 76 102 0.0 0.0 0.00 0.00 0.00 100 1014.3
20260903110520 76 102 0.0 0.0 0.00 0.00 0.00 100 1014.4
20260903110019 76 102 0.0 0.0 0.00 0.00 0.00 100 1014.4
20260903105519 77 102 0.0 0.0 0.00 0.00 0.00 100 1014.3
20260903105020 77 102 0.0 0.0 0.00 0.00 0.00 100 1014.2
20260903104520 77 102 0.0 0.0 0.00 0.00 0.00 100 1014.2
20260903104020 77 102 0.0 0.0 0.00 0.00 0.00 100 1014.1
20260903103520 77 102 0.0 0.0 0.00 0.00 0.00 100 1014.1
20260903103013 77 102 0.0 0.0 0.00 0.00 0.00 100 1014.0
20260903102507 77 102 0.0 0.0 0.00 0.00 0.00 100 1014.1
20260903102001 77 102 0.0 0.0 0.00 0.00 0.00 100 1014.0
20260903101455 77 102 0.0 0.0 0.00 0.00 0.00 100 1014.1
20260903100949 77 102 0.0 0.0 0.00 0.00 0.00 100 1014.0
20260903100444 77 102 0.0 0.0 0.00 0.00 0.00 100 1014.0
20260903095937 77 102 0.0 0.0 0.00 0.00 0.00 100 1014.0
20260903095431 77 102 0.0 0.0 0.00 0.00 0.00 100 1013.8
20260903095415 77 102 0.0 0.0 0.00 0.00 0.00 100 1014.0
20260903094640 77 102 0.0 0.0 0.00 0.00 0.00 100 1013.9
20260903093913 77 102 0.0 0.0 0.00 0.00 0.00 100 1013.7
20260903093407 77 102 0.0 0.0 0.00 0.00 0.00 100 1013.7
20260903092903 77 102 0.0 0.0 0.00 0.00 0.00 100 1013.6
20260903092355 77 102 0.0 0.0 0.00 0.00 0.00 100 1013.6
20260903092114 77 102 0.0 0.0 0.00 0.00 0.00 100 1013.5
20260903091342 77 102 0.0 0.0 0.00 0.00 0.00 100 1013.5
20260903090837 77 102 0.0 0.0 0.00 0.00 0.00 100 1013.6
20260903090331 78 102 0.0 0.0 0.00 0.00 0.00 100 1013.7